Regional Weather Roundup
Issued by NWS State College, PA

Home | Current Version | Previous Version | Text Only | Print | Product List | Glossary On
Versions: 1 2 3 4 5 6 7 8 9 10 11 12 13 14 15 16 17 18 19 20 21 22 23 24 25 26 27 28 29 30 31 32 33 34 35 36 37 38 39 40 41 42 43 44 45 46 47 48 49 50
000
ASUS41 KCTP 302210
RWRCTP

REGIONAL WEATHER ROUNDUP
NATIONAL WEATHER SERVICE STATE COLLEGE PA
600 PM EDT MON MAY 30 2016

Note: "fair" indicates few or no clouds below 12,000 feet with no
significant weather and/or obstructions to visibility.

* = STATION THAT DOES NOT REPORT PRECIPITATION /E.G. RAIN...SNOW...ETC/
    THUNDER OR FOG.

PAZ002>004-007>009-013>016-020>023-029>032-302300-
WESTERN PENNSYLVANIA

CITY           SKY/WX    TMP DP  RH WIND       PRES   REMARKS
ERIE           SUNNY     77  56  48 W10       29.98S
MEADVILLE      MOSUNNY   77  53  43 NW7       30.00S
FRANKLIN*      SUNNY     79  54  41 W9        30.02S
NEW CASTLE     FAIR      81  56  42 N6        29.99S
BEAVER COUNTY  NOT AVBL
BUTLER*        MOSUNNY   79  57  47 NW9       30.01S
PITTSBURGH INT MOSUNNY   83  52  34 N12       29.97F
PITTSBURGH     SUNNY     81  54  39 VRB6      29.97S
INDIANA*       SUNNY     81  57  44 VRB7G14   29.99F
LATROBE        PTSUNNY   79  59  50 NW9       29.97F
WASHINGTON CO* SUNNY     81  57  44 NW6       29.99S
$$

PAZ004>006-010>012-017>019-024>028-033>037-041-042-045-046-049>053-302300-
CENTRAL PENNSYLVANIA

CITY           SKY/WX    TMP DP  RH WIND       PRES   REMARKS
BRADFORD       SUNNY     76  51  41 NW16      30.01S
DUBOIS         MOSUNNY   76  54  46 VRB7      29.98S
CLEARFIELD     SUNNY     82  52  35 NW14      29.96F
JOHNSTOWN      SUNNY     77  55  46 NW12      30.00F
ALTOONA        PTSUNNY   83  56  39 NW14      29.96S
STATE COLLEGE  MOSUNNY   82  57  42 W10G17    29.93F
WILLIAMSPORT   CLOUDY    75  59  57 SE7       29.91R
SELINSGROVE    LGT RAIN  69  65  86 SE8       29.95F
FT INDIANTOWN  MOSUNNY   83  61  47 SW6       29.93R
CAPITAL CITY   SUNNY     84  61  45 SW7       29.91F
HARRISBURG     CLOUDY    85  62  46 S6        29.91S
YORK           MOSUNNY   82  65  56 S5        29.93S
$$

PAZ038>040-043-044-047-048-054-055-060>062-067>071-302300-
EASTERN PENNSYLVANIA

CITY           SKY/WX    TMP DP  RH WIND       PRES   REMARKS
SCRANTON       CLOUDY    72  63  73 NW12      29.96R
MOUNT POCONO   CLOUDY    75  61  61 SW13      29.97F
ALLENTOWN      CLOUDY    83  61  47 S8        29.92S
QUAKERTOWN*    CLOUDY    81  66  61 S5        29.94F
READING        CLOUDY    82  60  47 SW7       29.91F
LANCASTER      CLOUDY    83  64  52 S12       29.93S
COATESVILLE    CLOUDY    75  66  73 VRB5      29.97S
POTTSTOWN      CLOUDY    78  65  63 S8        29.95S
BLUE BELL      CLOUDY    73  66  78 S7        29.94S
DOYLESTOWN     CLOUDY    75  66  73 S7        29.94R
WILLOW GROVE   NOT AVBL
NORTH PHILA    CLOUDY    78  69  73 VRB5      29.96R
PHILADELPHIA   CLOUDY    75  68  78 S7        29.96R
$$




USA.gov is the U.S. government's official web portal to all federal, state and local government web resources and services.